Time,TemperatureF,DewpointF,PressureIn,WindDirection,WindDirectionDegrees,WindSpeedMPH,WindSpeedGustMPH,Humidity,HourlyPrecipIn,Conditions,Clouds,dailyrainin,SoftwareType,DateUTC
2013-06-24 00:00:00,75.7,71.2,29.86,WSW,253,3.0,8.0,86,0.00,,,0.10,Wunderground v.1.15,2013-06-24 05:00:00,
2013-06-24 00:05:00,75.6,71.5,29.85,WSW,242,3.0,8.0,87,0.00,,,0.00,Wunderground v.1.15,2013-06-24 05:05:00,
2013-06-24 00:10:00,75.5,71.4,29.85,WSW,246,3.0,8.0,87,0.00,,,0.00,Wunderground v.1.15,2013-06-24 05:10:00,
2013-06-24 00:15:00,75.5,71.4,29.85,WSW,249,3.0,8.0,87,0.00,,,0.00,Wunderground v.1.15,2013-06-24 05:15:00,
2013-06-24 00:25:00,75.4,71.3,29.86,WSW,251,4.0,8.0,87,0.00,,,0.00,Wunderground v.1.15,2013-06-24 05:25:00,
2013-06-24 00:35:00,75.2,71.1,29.86,SW,235,4.0,8.0,87,0.00,,,0.00,Wunderground v.1.15,2013-06-24 05:35:00,
2013-06-24 00:40:00,75.1,71.3,29.86,SSW,206,3.0,8.0,88,0.00,,,0.00,Wunderground v.1.15,2013-06-24 05:40:00,
2013-06-24 00:50:00,74.8,71.0,29.86,SW,228,3.0,8.0,88,0.00,,,0.00,Wunderground v.1.15,2013-06-24 05:50:00,
2013-06-24 00:55:00,74.7,70.9,29.86,SW,228,3.0,8.0,88,0.00,,,0.00,Wunderground v.1.15,2013-06-24 05:55:00,
2013-06-24 01:00:00,74.4,70.6,29.86,SW,236,2.0,2.0,88,0.00,,,0.00,Wunderground v.1.15,2013-06-24 06:00:00,
2013-06-24 01:15:00,73.9,70.5,29.86,WSW,244,3.0,8.0,89,0.00,,,0.00,Wunderground v.1.15,2013-06-24 06:15:00,
2013-06-24 01:20:00,73.8,70.4,29.86,SW,223,3.0,3.0,89,0.00,,,0.00,Wunderground v.1.15,2013-06-24 06:20:00,
2013-06-24 01:25:00,73.7,70.3,29.86,West,262,3.0,8.0,89,0.00,,,0.00,Wunderground v.1.15,2013-06-24 06:25:00,
2013-06-24 01:30:00,73.6,70.5,29.86,WSW,244,3.0,8.0,90,0.00,,,0.00,Wunderground v.1.15,2013-06-24 06:30:00,
2013-06-24 01:40:00,73.3,70.2,29.86,SW,221,3.0,8.0,90,0.00,,,0.00,Wunderground v.1.15,2013-06-24 06:40:00,
2013-06-24 01:45:00,73.1,70.0,29.86,SW,228,2.0,8.0,90,0.00,,,0.00,Wunderground v.1.15,2013-06-24 06:45:00,
2013-06-24 01:50:00,73.0,69.9,29.86,WSW,243,2.0,8.0,90,0.00,,,0.00,Wunderground v.1.15,2013-06-24 06:50:00,
2013-06-24 01:55:00,72.9,70.1,29.86,WSW,243,2.0,8.0,91,0.00,,,0.00,Wunderground v.1.15,2013-06-24 06:55:00,
2013-06-24 02:00:00,72.8,70.0,29.86,SSW,207,3.0,3.0,91,0.00,,,0.00,Wunderground v.1.15,2013-06-24 07:00:00,
2013-06-24 02:05:00,72.6,69.8,29.86,SW,221,2.0,8.0,91,0.00,,,0.00,Wunderground v.1.15,2013-06-24 07:05:00,
2013-06-24 02:15:00,72.5,69.7,29.86,SSW,213,2.0,8.0,91,0.00,,,0.00,Wunderground v.1.15,2013-06-24 07:15:00,
2013-06-24 02:20:00,72.4,69.6,29.87,SW,234,2.0,8.0,91,0.00,,,0.00,Wunderground v.1.15,2013-06-24 07:20:00,
2013-06-24 02:25:00,72.4,69.9,29.86,SW,229,3.0,8.0,92,0.00,,,0.00,Wunderground v.1.15,2013-06-24 07:25:00,
2013-06-24 02:30:00,72.4,69.9,29.86,WSW,246,3.0,8.0,92,0.00,,,0.00,Wunderground v.1.15,2013-06-24 07:30:00,
2013-06-24 02:35:00,72.4,69.9,29.86,WSW,244,2.0,8.0,92,0.00,,,0.00,Wunderground v.1.15,2013-06-24 07:35:00,
2013-06-24 02:45:00,72.2,69.7,29.86,SW,225,1.0,8.0,92,0.00,,,0.00,Wunderground v.1.15,2013-06-24 07:45:00,
2013-06-24 02:55:00,71.9,69.4,29.85,SW,228,1.0,8.0,92,0.00,,,0.00,Wunderground v.1.15,2013-06-24 07:55:00,
2013-06-24 03:00:00,71.7,69.3,29.86,SW,228,0.0,8.0,92,0.00,,,0.00,Wunderground v.1.15,2013-06-24 08:00:00,
2013-06-24 03:05:00,71.5,69.1,29.86,SW,228,0.0,8.0,92,0.00,,,0.00,Wunderground v.1.15,2013-06-24 08:05:00,
2013-06-24 03:15:00,71.2,68.8,29.86,SW,228,0.0,8.0,92,0.00,,,0.00,Wunderground v.1.15,2013-06-24 08:15:00,
2013-06-24 03:20:00,71.0,68.6,29.86,SW,228,0.0,8.0,92,0.00,,,0.00,Wunderground v.1.15,2013-06-24 08:20:00,
2013-06-24 03:25:00,71.0,68.9,29.86,South,176,0.0,8.0,93,0.00,,,0.00,Wunderground v.1.15,2013-06-24 08:25:00,
2013-06-24 03:35:00,70.7,68.6,29.86,South,176,0.0,8.0,93,0.00,,,0.00,Wunderground v.1.15,2013-06-24 08:35:00,
2013-06-24 03:45:00,70.5,68.4,29.87,SW,214,0.0,8.0,93,0.00,,,0.00,Wunderground v.1.15,2013-06-24 08:45:00,
2013-06-24 03:50:00,70.4,68.3,29.87,SW,220,0.0,8.0,93,0.00,,,0.00,Wunderground v.1.15,2013-06-24 08:50:00,
2013-06-24 04:00:00,70.3,68.2,29.87,SW,220,0.0,8.0,93,0.00,,,0.00,Wunderground v.1.15,2013-06-24 09:00:00,
2013-06-24 04:05:00,70.2,68.1,29.87,SSW,204,0.0,8.0,93,0.00,,,0.00,Wunderground v.1.15,2013-06-24 09:05:00,
2013-06-24 04:15:00,69.9,67.8,29.87,SSW,204,0.0,8.0,93,0.00,,,0.00,Wunderground v.1.15,2013-06-24 09:15:00,
2013-06-24 04:20:00,69.6,67.5,29.87,SSW,204,0.0,8.0,93,0.00,,,0.00,Wunderground v.1.15,2013-06-24 09:20:00,
2013-06-24 04:25:00,69.4,67.3,29.87,SSW,204,0.0,8.0,93,0.00,,,0.00,Wunderground v.1.15,2013-06-24 09:25:00,
2013-06-24 04:30:00,69.3,67.2,29.87,SSW,204,0.0,8.0,93,0.00,,,0.00,Wunderground v.1.15,2013-06-24 09:30:00,
2013-06-24 04:40:00,69.0,66.9,29.87,SSW,204,0.0,8.0,93,0.00,,,0.00,Wunderground v.1.15,2013-06-24 09:40:00,
2013-06-24 04:45:00,68.9,66.8,29.87,SSW,204,0.0,8.0,93,0.00,,,0.00,Wunderground v.1.15,2013-06-24 09:45:00,
2013-06-24 05:00:00,68.3,66.5,29.88,SSW,204,0.0,8.0,94,0.00,,,0.00,Wunderground v.1.15,2013-06-24 10:00:00,
2013-06-24 05:05:00,68.2,66.4,29.88,SSW,204,0.0,8.0,94,0.00,,,0.00,Wunderground v.1.15,2013-06-24 10:05:00,
2013-06-24 05:10:00,68.0,66.2,29.88,SSW,204,0.0,8.0,94,0.00,,,0.00,Wunderground v.1.15,2013-06-24 10:10:00,
2013-06-24 05:20:00,67.9,66.1,29.88,SSW,204,0.0,8.0,94,0.00,,,0.00,Wunderground v.1.15,2013-06-24 10:20:00,
2013-06-24 05:25:00,67.8,66.0,29.88,SSW,204,0.0,8.0,94,0.00,,,0.00,Wunderground v.1.15,2013-06-24 10:25:00,
2013-06-24 05:30:00,68.0,66.2,29.88,SSW,204,0.0,8.0,94,0.00,,,0.00,Wunderground v.1.15,2013-06-24 10:30:00,
2013-06-24 05:35:00,68.2,66.4,29.89,SSW,204,0.0,8.0,94,0.00,,,0.00,Wunderground v.1.15,2013-06-24 10:35:00,
2013-06-24 05:40:00,68.2,66.7,29.89,SSW,204,0.0,8.0,95,0.00,,,0.00,Wunderground v.1.15,2013-06-24 10:40:00,
2013-06-24 05:45:00,68.4,66.6,29.89,SSW,204,0.0,8.0,94,0.00,,,0.00,Wunderground v.1.15,2013-06-24 10:45:00,
2013-06-24 05:50:00,68.6,67.1,29.89,SSW,204,0.0,8.0,95,0.00,,,0.00,Wunderground v.1.15,2013-06-24 10:50:00,
2013-06-24 06:00:00,69.0,67.5,29.89,SSW,204,0.0,8.0,95,0.00,,,0.00,Wunderground v.1.15,2013-06-24 11:00:00,
2013-06-24 06:10:00,69.2,67.7,29.89,South,178,1.0,8.0,95,0.00,,,0.00,Wunderground v.1.15,2013-06-24 11:10:00,
2013-06-24 06:20:00,69.3,67.8,29.89,SSW,192,1.0,1.0,95,0.00,,,0.00,Wunderground v.1.15,2013-06-24 11:20:00,
2013-06-24 06:25:00,69.5,68.0,29.89,SSW,192,0.0,8.0,95,0.00,,,0.00,Wunderground v.1.15,2013-06-24 11:25:00,
2013-06-24 06:40:00,70.3,68.8,29.89,SSW,207,2.0,8.0,95,0.00,,,0.00,Wunderground v.1.15,2013-06-24 11:40:00,
2013-06-24 06:45:00,70.5,69.0,29.89,SSW,196,3.0,8.0,95,0.00,,,0.00,Wunderground v.1.15,2013-06-24 11:45:00,
2013-06-24 06:50:00,70.7,68.9,29.89,South,186,3.0,8.0,94,0.00,,,0.00,Wunderground v.1.15,2013-06-24 11:50:00,
2013-06-24 07:00:00,71.2,69.4,29.90,SW,222,4.0,8.0,94,0.00,,,0.00,Wunderground v.1.15,2013-06-24 12:00:00,
2013-06-24 07:05:00,71.5,69.7,29.89,WSW,243,4.0,8.0,94,0.00,,,0.00,Wunderground v.1.15,2013-06-24 12:05:00,
2013-06-24 07:10:00,71.7,69.9,29.90,SW,214,4.0,8.0,94,0.00,,,0.00,Wunderground v.1.15,2013-06-24 12:10:00,
2013-06-24 07:25:00,72.5,70.0,29.90,SW,234,5.0,8.0,92,0.00,,,0.00,Wunderground v.1.15,2013-06-24 12:25:00,
2013-06-24 07:35:00,73.2,70.4,29.90,WSW,252,4.0,8.0,91,0.00,,,0.00,Wunderground v.1.15,2013-06-24 12:35:00,
2013-06-24 07:40:00,73.6,70.5,29.90,SW,228,4.0,8.0,90,0.00,,,0.00,Wunderground v.1.15,2013-06-24 12:40:00,
2013-06-24 07:45:00,73.9,70.5,29.90,WSW,254,4.0,8.0,89,0.00,,,0.00,Wunderground v.1.15,2013-06-24 12:45:00,
2013-06-24 07:50:00,74.2,70.7,29.90,WSW,257,4.0,4.0,89,0.00,,,0.00,Wunderground v.1.15,2013-06-24 12:50:00,
2013-06-24 08:00:00,74.6,70.5,29.90,WSW,238,5.0,8.0,87,0.00,,,0.00,Wunderground v.1.15,2013-06-24 13:00:00,
2013-06-24 08:10:00,74.8,70.3,29.91,West,269,4.0,4.0,86,0.00,,,0.00,Wunderground v.1.15,2013-06-24 13:10:00,
2013-06-24 08:15:00,74.9,70.4,29.91,West,271,3.0,8.0,86,0.00,,,0.00,Wunderground v.1.15,2013-06-24 13:15:00,
2013-06-24 08:20:00,74.8,70.0,29.91,WSW,246,3.0,3.0,85,0.00,,,0.00,Wunderground v.1.15,2013-06-24 13:20:00,
2013-06-24 08:25:00,74.8,70.0,29.90,West,265,2.0,8.0,85,0.00,,,0.00,Wunderground v.1.15,2013-06-24 13:25:00,
2013-06-24 08:30:00,74.9,70.1,29.92,WSW,252,0.0,8.0,85,0.00,,,0.00,Wunderground v.1.15,2013-06-24 13:30:00,
2013-06-24 08:35:00,75.0,70.2,29.90,SSW,207,0.0,8.0,85,0.00,,,0.00,Wunderground v.1.15,2013-06-24 13:35:00,
2013-06-24 08:45:00,75.4,70.2,29.91,WNW,286,1.0,8.0,84,0.00,,,0.00,Wunderground v.1.15,2013-06-24 13:45:00,
2013-06-24 08:55:00,75.8,70.3,29.91,NW,311,0.0,8.0,83,0.00,,,0.00,Wunderground v.1.15,2013-06-24 13:55:00,
2013-06-24 09:00:00,75.9,70.0,29.91,WSW,255,0.0,8.0,82,0.00,,,0.00,Wunderground v.1.15,2013-06-24 14:00:00,
2013-06-24 09:15:00,76.3,70.4,29.92,SSW,203,0.0,8.0,82,0.00,,,0.00,Wunderground v.1.15,2013-06-24 14:15:00,
2013-06-24 09:25:00,76.5,70.6,29.92,West,277,0.0,8.0,82,0.00,,,0.00,Wunderground v.1.15,2013-06-24 14:25:00,
2013-06-24 09:30:00,76.6,70.7,29.91,WSW,240,0.0,8.0,82,0.00,,,0.00,Wunderground v.1.15,2013-06-24 14:30:00,
2013-06-24 09:35:00,76.8,70.5,29.91,SW,228,0.0,8.0,81,0.00,,,0.00,Wunderground v.1.15,2013-06-24 14:35:00,
2013-06-24 09:40:00,77.0,70.7,29.91,WNW,286,0.0,8.0,81,0.00,,,0.00,Wunderground v.1.15,2013-06-24 14:40:00,
2013-06-24 09:45:00,77.2,70.5,29.91,WNW,299,0.0,8.0,80,0.00,,,0.00,Wunderground v.1.15,2013-06-24 14:45:00,
2013-06-24 09:50:00,77.6,70.9,29.91,West,281,0.0,8.0,80,0.00,,,0.00,Wunderground v.1.15,2013-06-24 14:50:00,
2013-06-24 10:00:00,77.7,71.0,29.90,WSW,242,0.0,8.0,80,0.00,,,0.00,Wunderground v.1.15,2013-06-24 15:00:00,
2013-06-24 10:05:00,77.9,70.9,29.90,WNW,286,0.0,8.0,79,0.00,,,0.00,Wunderground v.1.15,2013-06-24 15:05:00,
2013-06-24 10:10:00,78.5,71.8,29.90,South,188,0.0,8.0,80,0.00,,,0.00,Wunderground v.1.15,2013-06-24 15:10:00,
2013-06-24 10:15:00,78.8,71.4,29.90,SSW,210,0.0,8.0,78,0.00,,,0.00,Wunderground v.1.15,2013-06-24 15:15:00,
2013-06-24 10:20:00,79.0,71.6,29.90,West,269,0.0,8.0,78,0.00,,,0.00,Wunderground v.1.15,2013-06-24 15:20:00,
2013-06-24 10:25:00,79.3,71.8,29.90,SW,228,0.0,8.0,78,0.00,,,0.00,Wunderground v.1.15,2013-06-24 15:25:00,
2013-06-24 10:30:00,79.5,71.7,29.90,SSW,200,0.0,8.0,77,0.00,,,0.00,Wunderground v.1.15,2013-06-24 15:30:00,
2013-06-24 10:35:00,79.9,72.0,29.90,SW,236,0.0,8.0,77,0.00,,,0.00,Wunderground v.1.15,2013-06-24 15:35:00,
2013-06-24 10:40:00,80.1,71.8,29.90,SSE,160,0.0,8.0,76,0.00,,,0.00,Wunderground v.1.15,2013-06-24 15:40:00,
2013-06-24 10:45:00,80.6,72.3,29.90,South,171,0.0,8.0,76,0.00,,,0.00,Wunderground v.1.15,2013-06-24 15:45:00,
2013-06-24 10:50:00,81.1,72.8,29.90,SW,231,0.0,8.0,76,0.00,,,0.00,Wunderground v.1.15,2013-06-24 15:50:00,
2013-06-24 10:55:00,81.1,71.6,29.90,South,188,0.0,8.0,73,0.00,,,0.00,Wunderground v.1.15,2013-06-24 15:55:00,
2013-06-24 11:00:00,81.2,72.5,29.90,WSW,239,0.0,8.0,75,0.00,,,0.00,Wunderground v.1.15,2013-06-24 16:00:00,
2013-06-24 11:05:00,81.3,71.8,29.90,SSE,165,0.0,8.0,73,0.00,,,0.00,Wunderground v.1.15,2013-06-24 16:05:00,
2013-06-24 11:10:00,81.5,72.0,29.90,South,180,0.0,8.0,73,0.00,,,0.00,Wunderground v.1.15,2013-06-24 16:10:00,
2013-06-24 11:15:00,81.9,72.0,29.90,SSW,213,0.0,8.0,72,0.00,,,0.00,Wunderground v.1.15,2013-06-24 16:15:00,
2013-06-24 11:25:00,81.7,71.8,29.89,SSW,209,0.0,8.0,72,0.00,,,0.00,Wunderground v.1.15,2013-06-24 16:25:00,
2013-06-24 11:30:00,81.5,72.0,29.89,SW,224,0.0,8.0,73,0.00,,,0.00,Wunderground v.1.15,2013-06-24 16:30:00,
2013-06-24 11:35:00,81.1,71.6,29.89,SSW,200,0.0,8.0,73,0.00,,,0.00,Wunderground v.1.15,2013-06-24 16:35:00,
2013-06-24 11:40:00,81.2,72.1,29.89,SW,223,0.0,8.0,74,0.00,,,0.00,Wunderground v.1.15,2013-06-24 16:40:00,
2013-06-24 11:50:00,81.2,70.5,29.89,SW,223,0.0,8.0,70,0.00,,,0.00,Wunderground v.1.15,2013-06-24 16:50:00,
2013-06-24 11:55:00,81.2,70.9,29.89,SSW,205,0.0,8.0,71,0.00,,,0.00,Wunderground v.1.15,2013-06-24 16:55:00,
2013-06-24 12:05:00,82.1,72.2,29.89,SSW,192,0.0,8.0,72,0.00,,,0.00,Wunderground v.1.15,2013-06-24 17:05:00,
2013-06-24 12:10:00,81.2,71.7,29.90,South,176,0.0,8.0,73,0.00,,,0.00,Wunderground v.1.15,2013-06-24 17:10:00,
2013-06-24 12:15:00,80.7,71.6,29.89,SW,229,0.0,8.0,74,0.00,,,0.00,Wunderground v.1.15,2013-06-24 17:15:00,
2013-06-24 12:25:00,80.5,71.4,29.89,SSW,194,0.0,8.0,74,0.00,,,0.00,Wunderground v.1.15,2013-06-24 17:25:00,
2013-06-24 12:40:00,82.1,71.8,29.88,SW,214,0.0,8.0,71,0.00,,,0.00,Wunderground v.1.15,2013-06-24 17:40:00,
2013-06-24 12:50:00,81.8,70.6,29.88,West,263,0.0,8.0,69,0.00,,,0.00,Wunderground v.1.15,2013-06-24 17:50:00,
2013-06-24 13:00:00,81.2,70.5,29.88,SW,219,0.0,8.0,70,0.00,,,0.00,Wunderground v.1.15,2013-06-24 18:00:00,
2013-06-24 13:05:00,81.3,70.2,29.87,SW,221,0.0,8.0,69,0.00,,,0.00,Wunderground v.1.15,2013-06-24 18:05:00,
2013-06-24 13:15:00,81.8,71.1,29.88,WSW,247,0.0,8.0,70,0.00,,,0.00,Wunderground v.1.15,2013-06-24 18:15:00,
2013-06-24 13:20:00,82.1,71.3,29.88,SW,224,0.0,8.0,70,0.00,,,0.00,Wunderground v.1.15,2013-06-24 18:20:00,
2013-06-24 13:30:00,81.9,71.6,29.87,SW,217,0.0,8.0,71,0.00,,,0.00,Wunderground v.1.15,2013-06-24 18:30:00,
2013-06-24 13:35:00,81.6,71.7,29.87,WSW,240,0.0,8.0,72,0.00,,,0.00,Wunderground v.1.15,2013-06-24 18:35:00,
2013-06-24 13:45:00,81.6,71.7,29.87,WSW,238,0.0,8.0,72,0.00,,,0.00,Wunderground v.1.15,2013-06-24 18:45:00,
2013-06-24 13:55:00,81.4,71.9,29.86,South,187,0.0,8.0,73,0.00,,,0.00,Wunderground v.1.15,2013-06-24 18:55:00,
2013-06-24 14:00:00,81.4,71.5,29.86,SW,236,0.0,8.0,72,0.00,,,0.00,Wunderground v.1.15,2013-06-24 19:00:00,
2013-06-24 14:05:00,81.7,71.8,29.86,SW,232,0.0,8.0,72,0.00,,,0.00,Wunderground v.1.15,2013-06-24 19:05:00,
2013-06-24 14:10:00,81.3,71.4,29.85,SW,234,0.0,8.0,72,0.00,,,0.00,Wunderground v.1.15,2013-06-24 19:10:00,
2013-06-24 14:15:00,81.0,71.1,29.85,SW,235,0.0,8.0,72,0.00,,,0.00,Wunderground v.1.15,2013-06-24 19:15:00,
2013-06-24 14:25:00,81.3,71.4,29.84,SW,225,0.0,8.0,72,0.00,,,0.00,Wunderground v.1.15,2013-06-24 19:25:00,
2013-06-24 14:30:00,81.6,71.7,29.84,South,186,0.0,8.0,72,0.00,,,0.00,Wunderground v.1.15,2013-06-24 19:30:00,
2013-06-24 14:35:00,82.0,72.1,29.84,SSW,192,0.0,8.0,72,0.00,,,0.00,Wunderground v.1.15,2013-06-24 19:35:00,
2013-06-24 14:40:00,82.2,72.3,29.83,SSE,168,0.0,8.0,72,0.00,,,0.00,Wunderground v.1.15,2013-06-24 19:40:00,
2013-06-24 14:45:00,82.2,72.3,29.83,SSE,163,0.0,8.0,72,0.00,,,0.00,Wunderground v.1.15,2013-06-24 19:45:00,
2013-06-24 14:50:00,82.3,72.0,29.83,South,187,0.0,8.0,71,0.00,,,0.00,Wunderground v.1.15,2013-06-24 19:50:00,
2013-06-24 15:00:00,82.4,72.0,29.82,WSW,239,0.0,8.0,71,0.00,,,0.00,Wunderground v.1.15,2013-06-24 20:00:00,
2013-06-24 15:05:00,82.5,72.1,29.82,South,182,0.0,8.0,71,0.00,,,0.00,Wunderground v.1.15,2013-06-24 20:05:00,
2013-06-24 15:10:00,82.5,72.1,29.81,SW,219,0.0,8.0,71,0.00,,,0.00,Wunderground v.1.15,2013-06-24 20:10:00,
2013-06-24 15:15:00,82.7,71.9,29.81,SSW,208,0.0,8.0,70,0.00,,,0.00,Wunderground v.1.15,2013-06-24 20:15:00,
2013-06-24 15:20:00,82.6,72.2,29.81,SSW,194,0.0,8.0,71,0.00,,,0.00,Wunderground v.1.15,2013-06-24 20:20:00,
2013-06-24 15:25:00,82.0,71.7,29.81,South,177,0.0,8.0,71,0.00,,,0.00,Wunderground v.1.15,2013-06-24 20:25:00,
2013-06-24 15:30:00,81.6,71.7,29.81,SSW,213,0.0,8.0,72,0.00,,,0.00,Wunderground v.1.15,2013-06-24 20:30:00,
2013-06-24 15:45:00,81.2,71.3,29.81,SW,224,0.0,8.0,72,0.00,,,0.00,Wunderground v.1.15,2013-06-24 20:45:00,
2013-06-24 15:55:00,81.3,72.2,29.81,SSW,202,0.0,8.0,74,0.00,,,0.00,Wunderground v.1.15,2013-06-24 20:55:00,
2013-06-24 16:00:00,81.5,71.6,29.81,WSW,246,0.0,8.0,72,0.00,,,0.00,Wunderground v.1.15,2013-06-24 21:00:00,
2013-06-24 16:05:00,81.6,71.7,29.81,SW,226,0.0,8.0,72,0.00,,,0.00,Wunderground v.1.15,2013-06-24 21:05:00,
2013-06-24 16:10:00,81.4,71.5,29.81,SW,225,0.0,8.0,72,0.00,,,0.00,Wunderground v.1.15,2013-06-24 21:10:00,
2013-06-24 16:20:00,81.5,72.0,29.82,SSW,209,0.0,8.0,73,0.00,,,0.00,Wunderground v.1.15,2013-06-24 21:20:00,
2013-06-24 16:25:00,81.2,71.3,29.81,SSE,166,0.0,8.0,72,0.00,,,0.00,Wunderground v.1.15,2013-06-24 21:25:00,
2013-06-24 16:35:00,80.9,71.8,29.81,SSW,207,0.0,8.0,74,0.00,,,0.00,Wunderground v.1.15,2013-06-24 21:35:00,
2013-06-24 16:45:00,81.0,71.9,29.81,SSW,205,0.0,8.0,74,0.00,,,0.00,Wunderground v.1.15,2013-06-24 21:45:00,
2013-06-24 16:50:00,81.4,72.3,29.81,SSW,203,0.0,8.0,74,0.00,,,0.00,Wunderground v.1.15,2013-06-24 21:50:00,
2013-06-24 16:55:00,81.4,72.3,29.81,SW,227,0.0,8.0,74,0.00,,,0.00,Wunderground v.1.15,2013-06-24 21:55:00,
2013-06-24 17:00:00,81.5,72.4,29.81,South,188,0.0,8.0,74,0.00,,,0.00,Wunderground v.1.15,2013-06-24 22:00:00,
2013-06-24 17:05:00,81.6,72.9,29.81,SW,232,0.0,8.0,75,0.00,,,0.00,Wunderground v.1.15,2013-06-24 22:05:00,
2013-06-24 17:10:00,81.8,72.7,29.81,WSW,237,0.0,8.0,74,0.00,,,0.00,Wunderground v.1.15,2013-06-24 22:10:00,
2013-06-24 17:20:00,82.0,72.9,29.80,SW,230,0.0,8.0,74,0.00,,,0.00,Wunderground v.1.15,2013-06-24 22:20:00,
2013-06-24 17:25:00,82.2,73.1,29.80,SW,228,0.0,8.0,74,0.00,,,0.00,Wunderground v.1.15,2013-06-24 22:25:00,
2013-06-24 17:35:00,82.0,72.9,29.80,SW,224,0.0,8.0,74,0.00,,,0.00,Wunderground v.1.15,2013-06-24 22:35:00,
2013-06-24 17:40:00,82.0,72.9,29.80,SSW,205,0.0,8.0,74,0.00,,,0.00,Wunderground v.1.15,2013-06-24 22:40:00,
2013-06-24 17:55:00,81.3,71.8,29.80,SSW,194,0.0,8.0,73,0.00,,,0.00,Wunderground v.1.15,2013-06-24 22:55:00,
2013-06-24 18:05:00,80.9,70.6,29.80,SW,223,0.0,8.0,71,0.00,,,0.00,Wunderground v.1.15,2013-06-24 23:05:00,
2013-06-24 18:15:00,80.7,70.0,29.80,SSW,192,0.0,8.0,70,0.00,,,0.00,Wunderground v.1.15,2013-06-24 23:15:00,
2013-06-24 18:20:00,80.7,70.4,29.80,South,183,0.0,8.0,71,0.00,,,0.00,Wunderground v.1.15,2013-06-24 23:20:00,
2013-06-24 18:25:00,80.8,70.1,29.80,SW,235,0.0,8.0,70,0.00,,,0.00,Wunderground v.1.15,2013-06-24 23:25:00,
2013-06-24 18:30:00,80.6,69.5,29.80,WSW,237,0.0,8.0,69,0.00,,,0.00,Wunderground v.1.15,2013-06-24 23:30:00,
2013-06-24 18:35:00,80.4,69.3,29.80,South,181,0.0,8.0,69,0.00,,,0.00,Wunderground v.1.15,2013-06-24 23:35:00,
2013-06-24 18:40:00,80.2,69.1,29.80,SW,222,0.0,8.0,69,0.00,,,0.00,Wunderground v.1.15,2013-06-24 23:40:00,
2013-06-24 18:45:00,80.0,68.9,29.81,SW,214,0.0,8.0,69,0.00,,,0.00,Wunderground v.1.15,2013-06-24 23:45:00,
2013-06-24 18:50:00,79.9,68.8,29.80,SSW,200,0.0,8.0,69,0.00,,,0.00,Wunderground v.1.15,2013-06-24 23:50:00,
2013-06-24 18:55:00,79.7,68.6,29.81,WSW,250,0.0,8.0,69,0.00,,,0.00,Wunderground v.1.15,2013-06-24 23:55:00,
2013-06-24 19:05:00,79.4,68.3,29.81,SW,227,0.0,8.0,69,0.00,,,0.00,Wunderground v.1.15,2013-06-25 00:05:00,
2013-06-24 19:10:00,79.2,68.1,29.80,SSW,204,0.0,8.0,69,0.00,,,0.00,Wunderground v.1.15,2013-06-25 00:10:00,
2013-06-24 19:20:00,79.0,68.4,29.81,SSW,196,0.0,8.0,70,0.00,,,0.00,Wunderground v.1.15,2013-06-25 00:20:00,
2013-06-24 19:25:00,78.7,68.1,29.81,SSW,193,0.0,8.0,70,0.00,,,0.00,Wunderground v.1.15,2013-06-25 00:25:00,
2013-06-24 19:30:00,78.6,68.4,29.81,SSW,199,0.0,8.0,71,0.00,,,0.00,Wunderground v.1.15,2013-06-25 00:30:00,
2013-06-24 19:35:00,78.4,68.6,29.80,SW,225,0.0,8.0,72,0.00,,,0.00,Wunderground v.1.15,2013-06-25 00:35:00,
2013-06-24 19:40:00,78.3,68.5,29.80,SSW,192,0.0,8.0,72,0.00,,,0.00,Wunderground v.1.15,2013-06-25 00:40:00,
2013-06-24 19:50:00,78.0,68.6,29.80,SW,220,0.0,8.0,73,0.00,,,0.00,Wunderground v.1.15,2013-06-25 00:50:00,
2013-06-24 20:05:00,77.6,68.7,29.80,SW,221,0.0,8.0,74,0.00,,,0.00,Wunderground v.1.15,2013-06-25 01:05:00,
2013-06-24 20:10:00,77.5,68.9,29.79,West,263,0.0,8.0,75,0.00,,,0.00,Wunderground v.1.15,2013-06-25 01:10:00,
2013-06-24 20:20:00,77.1,68.9,29.79,SW,219,0.0,8.0,76,0.00,,,0.00,Wunderground v.1.15,2013-06-25 01:20:00,
2013-06-24 20:25:00,76.9,68.8,29.78,SW,226,0.0,8.0,76,0.00,,,0.00,Wunderground v.1.15,2013-06-25 01:25:00,
2013-06-24 20:35:00,76.6,68.8,29.79,SW,225,0.0,8.0,77,0.00,,,0.00,Wunderground v.1.15,2013-06-25 01:35:00,
2013-06-24 20:40:00,76.4,69.0,29.78,South,184,0.0,8.0,78,0.00,,,0.00,Wunderground v.1.15,2013-06-25 01:40:00,
2013-06-24 20:45:00,76.2,68.8,29.78,SSW,199,0.0,8.0,78,0.00,,,0.00,Wunderground v.1.15,2013-06-25 01:45:00,
2013-06-24 20:55:00,75.8,68.8,29.78,South,186,0.0,8.0,79,0.00,,,0.00,Wunderground v.1.15,2013-06-25 01:55:00,
2013-06-24 21:00:00,75.6,69.0,29.78,South,177,0.0,8.0,80,0.00,,,0.00,Wunderground v.1.15,2013-06-25 02:00:00,
2013-06-24 21:05:00,75.3,68.7,29.78,SW,229,0.0,8.0,80,0.00,,,0.00,Wunderground v.1.15,2013-06-25 02:05:00,
2013-06-24 21:10:00,75.1,68.9,29.78,South,175,0.0,8.0,81,0.00,,,0.00,Wunderground v.1.15,2013-06-25 02:10:00,
2013-06-24 21:25:00,74.5,69.0,29.78,SSW,211,0.0,8.0,83,0.00,,,0.00,Wunderground v.1.15,2013-06-25 02:25:00,
2013-06-24 21:35:00,74.1,69.0,29.79,WSW,238,0.0,8.0,84,0.00,,,0.00,Wunderground v.1.15,2013-06-25 02:35:00,
2013-06-24 21:40:00,74.0,69.2,29.79,WSW,242,0.0,8.0,85,0.00,,,0.00,Wunderground v.1.15,2013-06-25 02:40:00,
2013-06-24 21:45:00,73.8,69.0,29.79,SW,227,0.0,8.0,85,0.00,,,0.00,Wunderground v.1.15,2013-06-25 02:45:00,
2013-06-24 21:50:00,73.7,68.9,29.79,SSW,211,0.0,8.0,85,0.00,,,0.00,Wunderground v.1.15,2013-06-25 02:50:00,
2013-06-24 21:55:00,73.7,68.9,29.79,SW,217,0.0,8.0,85,0.00,,,0.00,Wunderground v.1.15,2013-06-25 02:55:00,
2013-06-24 22:00:00,73.5,68.7,29.79,South,190,0.0,8.0,85,0.00,,,0.00,Wunderground v.1.15,2013-06-25 03:00:00,
2013-06-24 22:05:00,73.4,69.0,29.79,SW,219,0.0,8.0,86,0.00,,,0.00,Wunderground v.1.15,2013-06-25 03:05:00,
2013-06-24 22:20:00,73.3,68.9,29.80,SW,229,0.0,8.0,86,0.00,,,0.00,Wunderground v.1.15,2013-06-25 03:20:00,
2013-06-24 22:35:00,73.0,68.6,29.80,SW,217,0.0,8.0,86,0.00,,,0.00,Wunderground v.1.15,2013-06-25 03:35:00,
2013-06-24 22:45:00,72.7,68.3,29.80,SW,218,0.0,8.0,86,0.00,,,0.00,Wunderground v.1.15,2013-06-25 03:45:00,
2013-06-24 23:00:00,72.1,68.0,29.80,South,189,0.0,8.0,87,0.00,,,0.00,Wunderground v.1.15,2013-06-25 04:00:00,
2013-06-24 23:05:00,72.0,68.2,29.80,South,190,0.0,8.0,88,0.00,,,0.00,Wunderground v.1.15,2013-06-25 04:05:00,
2013-06-24 23:15:00,72.0,68.2,29.80,SSW,198,0.0,8.0,88,0.00,,,0.00,Wunderground v.1.15,2013-06-25 04:15:00,
2013-06-24 23:20:00,72.1,68.3,29.80,SSW,198,0.0,8.0,88,0.00,,,0.00,Wunderground v.1.15,2013-06-25 04:20:00,
2013-06-24 23:30:00,72.1,68.3,29.80,SSW,208,0.0,8.0,88,0.00,,,0.00,Wunderground v.1.15,2013-06-25 04:30:00,
2013-06-24 23:35:00,72.0,68.2,29.80,South,182,0.0,8.0,88,0.00,,,0.00,Wunderground v.1.15,2013-06-25 04:35:00,
2013-06-24 23:40:00,72.0,68.6,29.80,SSW,206,0.0,8.0,89,0.00,,,0.00,Wunderground v.1.15,2013-06-25 04:40:00,
2013-06-24 23:50:00,72.3,68.9,29.80,SW,216,0.0,8.0,89,0.00,,,0.00,Wunderground v.1.15,2013-06-25 04:50:00,
2013-06-24 23:55:00,72.4,68.6,29.80,WSW,242,0.0,8.0,88,0.00,,,0.00,Wunderground v.1.15,2013-06-25 04:55:00,